This is the latest recevied weather packets stored in our database for station/object AC2VK-1. If no packets are shown the sender has not sent any weather packets the latest 10 day(s).
| Time | Temp. | Humidity | Pressure | Rain* | Wind** | Luminosity | Snow |
|---|---|---|---|---|---|---|---|
| 1777923559 | 24.44° C | 49% | 1015.6 hPa | 0 mm | - | - | - |
| 1777922959 | 24.44° C | 50% | 1015.7 hPa | 0 mm | - | - | - |
| 1777922359 | 23.89° C | 51% | 1016.1 hPa | 0 mm | - | - | - |
| 1777921759 | 23.33° C | 52% | 1016.3 hPa | 0 mm | - | - | - |
| 1777921159 | 23.33° C | 49% | 1016.4 hPa | 0 mm | - | - | - |
| 1777920559 | 23.89° C | 52% | 1016.4 hPa | 0 mm | - | - | - |
| 1777919959 | 23.33° C | 53% | 1016.7 hPa | 0 mm | - | - | - |
| 1777919359 | 23.33° C | 52% | 1016.8 hPa | 0 mm | - | - | - |
| 1777918759 | 22.78° C | 52% | 1016.9 hPa | 0 mm | - | - | - |
| 1777918159 | 22.78° C | 52% | 1017 hPa | 0 mm | - | - | - |
| 1777917559 | 22.78° C | 53% | 1017.1 hPa | 0 mm | - | - | - |
| 1777916959 | 22.22° C | 53% | 1017.1 hPa | 0 mm | - | - | - |
| 1777916359 | 22.22° C | 52% | 1017.3 hPa | 0 mm | - | - | - |
| 1777915759 | 22.22° C | 51% | 1017.2 hPa | 0 mm | - | - | - |
| 1777915159 | 22.22° C | 51% | 1017.4 hPa | 0 mm | - | - | - |
| 1777914559 | 21.67° C | 52% | 1017.6 hPa | 0 mm | - | - | - |
| 1777913959 | 21.67° C | 51% | 1017.7 hPa | 0 mm | - | - | - |
| 1777913359 | 21.11° C | 51% | 1017.9 hPa | 0 mm | - | - | - |
| 1777912759 | 21.67° C | 52% | 1018.2 hPa | 0 mm | - | - | - |
| 1777912159 | 21.11° C | 52% | 1018.3 hPa | 0 mm | - | - | - |
| 1777911559 | 21.11° C | 51% | 1018.5 hPa | 0 mm | - | - | - |
| 1777910959 | 20.56° C | 52% | 1018.7 hPa | 0 mm | - | - | - |
| 1777910359 | 20.56° C | 51% | 1018.8 hPa | 0 mm | - | - | - |
| 1777909759 | 20.56° C | 54% | 1019 hPa | 0 mm | - | - | - |
| 1777909159 | 19.44° C | 53% | 1019.1 hPa | 0 mm | - | - | - |
* Rain latest hour (hover to see other rain measurements)
** Current wind speed in m/s (hover to see current wind gust speed)